Vertical_Velocity
1 0 1 1 1 0 -1 -1 1 2 1 0 0 0 0 -1 -1 -1 -2 -3 -1 -1
1 -0 -0 -0 1 -1 -1 -1 -0 1 1 0 1 -1 -1 0 -1 -1 -0 -1 -1 -5
0 0 -1 -0 1 0 0 -0 0 1 -1 -0 0 -1 -2 0 1 2 2 -1 -1 -1
0 -0 -0 -1 1 1 1 -0 0 0 1 1 1 1 1 2 2 1 -2 -2 -1 -1
-2 -1 -1 -1 0 0 -0 0 0 -1 -1 -1 -1 -1 -1 0 1 -1 -1 -1 -0 1
2 1 -1 -3 -0 1 0 0 -1 -1 -1 -3 -3 -3 -3 -2 -2 -1 1 -0 -0 -1
-1 1 1 3 1 -2 -2 -2 -1 0 -0 -2 -2 -2 -1 -2 -3 -4 -3 -2 -2 -0
2 2 -2 -3 1 4 2 1 1 1 1 -1 -2 -2 -2 -1 -0 0 3 3 4 2
-1 1 0 1 1 -1 -0 1 2 -0 -1 -0 1 2 2 1 1 -4 -7 -8 -6 -4
2 -0 1 1 -1 -1 -0 3 -1 -0 0 -1 -1 -1 0 -1 -2 -1 3 6 1 -4
-0 1 -1 1 1 1 0 0 3 1 2 0 -0 -2 -2 0 -1 -3 -3 -7 -6 -2
3 -0 2 -1 -0 1 -0 3 2 -1 2 -0 2 6 7 6 2 0 1 2 0 2
4 -2 -4 1 0 4 2 -1 1 1 3 2 -4 5 1 3 4 2 1 2 3 1
3 0 2 -1 -2 -1 0 1 1 1 2 3 4 2 4 3 -2 1 3 3 -1 0
Height
1500 1498 1496 1493 1490 1488 1485 1483 1479 1478 1476 1474 1473 1472 1471 1472 1471 1470 1469 1468 1467 1466
1496 1494 1492 1490 1487 1486 1484 1482 1478 1476 1472 1471 1470 1469 1468 1468 1468 1467 1466 1466 1465 1463
1490 1489 1488 1487 1485 1482 1481 1479 1476 1474 1471 1469 1468 1467 1466 1466 1465 1465 1464 1462 1462 1460
1484 1484 1483 1482 1481 1480 1478 1476 1474 1472 1470 1468 1467 1466 1465 1464 1463 1462 1460 1459 1458 1456
1480 1479 1478 1477 1477 1476 1474 1473 1471 1469 1468 1466 1465 1463 1462 1461 1460 1459 1457 1456 1454 1452
1475 1473 1472 1471 1472 1471 1470 1469 1467 1466 1464 1463 1462 1461 1460 1458 1457 1456 1454 1453 1451 1449
1471 1469 1467 1466 1465 1465 1464 1464 1462 1461 1460 1459 1458 1457 1456 1455 1453 1452 1451 1450 1448 1447
1467 1464 1462 1461 1460 1459 1458 1457 1456 1455 1454 1453 1452 1452 1451 1450 1449 1448 1447 1446 1445 1443
1461 1459 1456 1454 1453 1452 1452 1451 1450 1450 1449 1448 1447 1446 1446 1445 1443 1442 1442 1442 1441 1440
1454 1451 1449 1448 1446 1444 1443 1444 1443 1443 1443 1442 1442 1441 1440 1439 1438 1438 1437 1436 1435 1435
1445 1443 1442 1440 1438 1436 1435 1435 1435 1435 1435 1435 1435 1435 1434 1434 1432 1431 1431 1431 1432 1430
1436 1435 1434 1431 1430 1429 1428 1427 1426 1426 1427 1427 1428 1429 1428 1427 1426 1425 1425 1425 1425 1425
1429 1426 1424 1423 1422 1421 1420 1419 1419 1419 1418 1419 1419 1421 1421 1421 1420 1419 1419 1419 1419 1419
1421 1418 1416 1414 1413 1413 1413 1413 1412 1411 1410 1411 1411 1411 1413 1412 1412 1413 1414 1413 1413 1414